Ladysmith, WI

8:02 AM CDT on July 26, 2017 (GMT -0500)
Rusk County

Weather History for KRCX - December, 2013

Change the Weather History Date:

Friday, December 6, 2013

  Actual Average (KPBH) Record (KPBH)
Temperature  
Mean Temperature -2 °F -  
Max Temperature 5 °F 30 °F 41 °F (2012)
Min Temperature -8 °F 17 °F -16 °F (2007)
Degree Days  
Heating Degree Days 66    
Moisture  
Dew Point -7 °F    
Average Humidity 80    
Maximum Humidity 84    
Minimum Humidity 72    
Precipitation  
Precipitation 0.00 in - - ()
Sea Level Pressure  
Sea Level Pressure 30.37 in    
Wind  
Wind Speed 6 mph (WSW)    
Max Wind Speed 10 mph    
Max Gust Speed -    
Visibility 8 miles    
Events Snow    
Averages and records for this station are not official NWS values.
T = Trace of Precipitation, MM = Missing Value Source: NWS Daily Summary

Daily Weather History Graph

Daily Weather History Graph

Search for Another Location

Airport or City:

Trip Planner

Search our weather history database for the weather conditions in past years. The results will help you decide how hot, cold, wet, or windy it might be!

Date:

Astronomy

Dec. 06, 2013 Rise Set
Actual Time 7:29 AM CST 4:20 PM CST
Civil Twilight 6:55 AM CST 4:54 PM CST
Nautical Twilight 6:18 AM CST 5:31 PM CST
Astronomical Twilight 5:42 AM CST 6:07 PM CST
Moon 10:28 AM CST (12/6) 9:01 PM CST (12/6)
Length of Visible Light 9h 58m
Length of Day
8h 51m
Waxing Crescent, 19% of the Moon is Illuminated
Dec 6
Waxing Crescent
Dec 9
First Quarter
Dec 17
Full
Dec 25
Last Quarter
Jan 1
New

Hourly Weather History & Observations

Time (CST) Temp. Windchill Dew Point Humidity Pressure Visibility Wind Dir Wind Speed Gust Speed Precip Events Conditions
12:15 AM -1.8 °F -13.7 °F -6.0 °F 83% 30.23 in 3.0 mi SW 5.8 mph - N/A Snow Light Snow
12:35 AM -1.8 °F -15.2 °F -6.0 °F 83% 30.23 in 4.0 mi WSW 6.9 mph - N/A Snow Light Snow
12:55 AM -2.2 °F -15.6 °F -6.2 °F 83% 30.24 in 3.0 mi WSW 6.9 mph - N/A Snow Light Snow
1:15 AM -2.4 °F -15.8 °F -6.7 °F 82% 30.24 in 3.0 mi WSW 6.9 mph - N/A Snow Light Snow
1:35 AM -3.1 °F -16.7 °F -6.9 °F 84% 30.25 in 3.0 mi WSW 6.9 mph - N/A Snow Light Snow
1:55 AM -2.6 °F -18.4 °F -6.7 °F 82% 30.25 in 2.5 mi WSW 9.2 mph - N/A Snow Light Snow
2:15 AM -2.7 °F -18.6 °F -7.1 °F 82% 30.26 in 3.0 mi WSW 9.2 mph - N/A Snow Light Snow
2:35 AM -3.1 °F -17.9 °F -7.4 °F 82% 30.26 in 3.0 mi West 8.1 mph - N/A Snow Light Snow
2:55 AM -3.1 °F -19.1 °F -7.6 °F 81% 30.26 in 3.0 mi West 9.2 mph - N/A   Haze
3:15 AM -3.8 °F -17.5 °F -8.1 °F 82% 30.25 in 3.0 mi WSW 6.9 mph - N/A   Mist
3:35 AM -4.5 °F -16.9 °F -8.5 °F 83% 30.25 in 5.0 mi West 5.8 mph - N/A   Clear
3:55 AM -4.9 °F -15.6 °F -8.7 °F 84% 30.25 in 7.0 mi WSW 4.6 mph - N/A   Clear
4:15 AM -6.3 °F -17.3 °F -10.5 °F 82% 30.26 in 10.0 mi SW 4.6 mph - N/A   Clear
4:35 AM -6.7 °F -15.5 °F -10.5 °F 84% 30.26 in 10.0 mi WSW 3.5 mph - N/A   Clear
4:55 AM -7.1 °F -15.9 °F -10.8 °F 84% 30.27 in 10.0 mi SW 3.5 mph - N/A   Clear
5:55 AM -7.2 °F -16.1 °F -11.2 °F 83% 30.28 in 10.0 mi WSW 3.5 mph - N/A   Clear
6:15 AM -7.8 °F -19.0 °F -11.7 °F 83% 30.29 in 10.0 mi WSW 4.6 mph - N/A   Clear
6:35 AM -8.0 °F -21.0 °F -12.1 °F 82% 30.30 in 10.0 mi WSW 5.8 mph - N/A   Clear
6:55 AM -8.0 °F -19.2 °F -12.1 °F 82% 30.32 in 10.0 mi SW 4.6 mph - N/A   Clear
7:15 AM -8.0 °F -19.2 °F -12.1 °F 82% 30.32 in 7.0 mi WSW 4.6 mph - N/A Snow Light Snow
7:35 AM -8.3 °F -19.6 °F -12.6 °F 81% 30.33 in 7.0 mi WSW 4.6 mph - N/A   Clear
7:55 AM -8.5 °F -17.6 °F -12.8 °F 81% 30.33 in 7.0 mi WSW 3.5 mph - N/A   Clear
8:15 AM -6.9 °F -15.7 °F -11.2 °F 81% 30.34 in 7.0 mi SW 3.5 mph - N/A   Mostly Cloudy
8:35 AM -5.4 °F -18.0 °F -9.9 °F 81% 30.35 in 7.0 mi WSW 5.8 mph - N/A   Overcast
8:55 AM -4.9 °F -17.4 °F -8.9 °F 83% 30.36 in 10.0 mi WSW 5.8 mph - N/A   Overcast
9:15 AM -4.2 °F -18.0 °F -8.5 °F 82% 30.36 in 7.0 mi West 6.9 mph - N/A   Overcast
9:35 AM -4.0 °F -16.3 °F -8.5 °F 81% 30.37 in 7.0 mi West 5.8 mph - N/A   Overcast
9:55 AM -3.5 °F -17.1 °F -8.5 °F 79% 30.38 in 5.0 mi WSW 6.9 mph - N/A   Haze
10:15 AM -2.9 °F -15.0 °F -8.1 °F 78% 30.39 in 5.0 mi West 5.8 mph - N/A   Haze
10:35 AM -1.7 °F -14.9 °F -7.6 °F 76% 30.39 in 5.0 mi West 6.9 mph - N/A   Haze
10:55 AM -0.9 °F -15.3 °F -6.9 °F 76% 30.39 in 7.0 mi West 8.1 mph - N/A   Clear
11:15 AM -0.0 °F -11.6 °F -6.0 °F 76% 30.39 in 10.0 mi West 5.8 mph - N/A   Clear
11:35 AM 0.7 °F -10.7 °F -5.6 °F 75% 30.39 in 7.0 mi WSW 5.8 mph - N/A   Clear
11:55 AM 1.6 °F -9.7 °F -4.9 °F 74% 30.38 in 10.0 mi WSW 5.8 mph - N/A   Clear
12:15 PM 2.7 °F -6.8 °F -4.2 °F 73% 30.38 in 10.0 mi West 4.6 mph - N/A   Scattered Clouds
12:35 PM 3.2 °F -10.3 °F -3.5 °F 74% 30.38 in 10.0 mi West 8.1 mph - N/A   Clear
12:55 PM 3.9 °F -10.4 °F -3.1 °F 73% 30.37 in 10.0 mi West 9.2 mph - N/A   Scattered Clouds
1:15 PM 4.3 °F -6.5 °F -2.4 °F 74% 30.37 in 10.0 mi WSW 5.8 mph - N/A   Scattered Clouds
1:35 PM 4.8 °F -7.1 °F -1.8 °F 74% 30.37 in 10.0 mi WSW 6.9 mph - N/A   Scattered Clouds
1:55 PM 5.7 °F -7.2 °F -1.1 °F 73% 30.37 in 10.0 mi West 8.1 mph - N/A   Scattered Clouds
2:15 PM 5.9 °F -4.5 °F -1.1 °F 73% 30.37 in 10.0 mi WSW 5.8 mph - N/A   Scattered Clouds
2:35 PM 5.9 °F -8.9 °F -1.3 °F 72% 30.37 in 10.0 mi West 10.4 mph - N/A   Scattered Clouds
2:55 PM 5.0 °F -9.1 °F -1.7 °F 74% 30.37 in 10.0 mi West 9.2 mph - N/A   Scattered Clouds
3:15 PM 5.4 °F -8.6 °F -0.9 °F 75% 30.38 in 10.0 mi WSW 9.2 mph - N/A   Scattered Clouds
3:35 PM 5.4 °F -3.6 °F -0.9 °F 75% 30.38 in 10.0 mi WSW 4.6 mph - N/A   Scattered Clouds
3:55 PM 4.6 °F -8.5 °F -1.3 °F 76% 30.39 in 10.0 mi WSW 8.1 mph - N/A   Scattered Clouds
4:15 PM 4.1 °F -9.2 °F -1.7 °F 77% 30.40 in 10.0 mi WSW 8.1 mph - N/A   Mostly Cloudy
4:35 PM 3.6 °F -8.7 °F -1.8 °F 78% 30.40 in 10.0 mi WSW 6.9 mph - N/A   Overcast
4:55 PM 2.7 °F -6.8 °F -2.2 °F 80% 30.41 in 10.0 mi WSW 4.6 mph - N/A   Overcast
5:35 PM 1.2 °F -10.1 °F -2.9 °F 83% 30.42 in 10.0 mi WSW 5.8 mph - N/A   Clear
5:55 PM 0.9 °F -8.9 °F -3.1 °F 83% 30.42 in 10.0 mi WSW 4.6 mph - N/A   Clear
6:15 PM -0.0 °F -11.6 °F -4.0 °F 83% 30.43 in 10.0 mi West 5.8 mph - N/A   Clear
6:35 PM -0.8 °F -13.9 °F -4.7 °F 83% 30.43 in 10.0 mi West 6.9 mph - N/A   Scattered Clouds
6:55 PM -1.1 °F -14.3 °F -5.1 °F 83% 30.44 in 10.0 mi West 6.9 mph - N/A   Scattered Clouds
7:15 PM -1.8 °F -13.7 °F -5.6 °F 84% 30.44 in 10.0 mi West 5.8 mph - N/A   Clear
7:35 PM -3.1 °F -16.7 °F -6.9 °F 84% 30.45 in 10.0 mi WNW 6.9 mph - N/A   Clear
7:55 PM -2.2 °F -18.0 °F -6.7 °F 81% 30.46 in 10.0 mi WNW 9.2 mph - N/A   Clear
8:15 PM -3.3 °F -18.2 °F -8.0 °F 80% 30.46 in 10.0 mi West 8.1 mph - N/A   Clear
8:35 PM -4.0 °F -19.0 °F -8.7 °F 80% 30.46 in 10.0 mi West 8.1 mph - N/A   Clear
8:55 PM -4.2 °F -18.0 °F -8.7 °F 81% 30.47 in 10.0 mi West 6.9 mph - N/A   Clear
9:15 PM -4.9 °F -13.4 °F -9.2 °F 82% 30.48 in 10.0 mi WSW 3.5 mph - N/A   Clear
9:35 PM -5.3 °F -16.0 °F -9.4 °F 82% 30.48 in 10.0 mi WSW 4.6 mph - N/A   Clear
9:55 PM -5.4 °F -16.2 °F -9.9 °F 81% 30.49 in 10.0 mi WSW 4.6 mph - N/A   Clear
10:15 PM -6.3 °F -19.1 °F -10.5 °F 82% 30.50 in 10.0 mi WSW 5.8 mph - N/A   Clear
10:35 PM -6.3 °F -17.3 °F -10.3 °F 83% 30.50 in 10.0 mi WSW 4.6 mph - N/A   Clear
10:55 PM -7.1 °F -18.1 °F -11.4 °F 81% 30.51 in 10.0 mi SW 4.6 mph - N/A   Clear
11:15 PM -7.4 °F -20.4 °F -11.6 °F 82% 30.51 in 10.0 mi SW 5.8 mph - N/A   Clear
11:35 PM -7.6 °F -20.6 °F -11.9 °F 81% 30.52 in 10.0 mi SW 5.8 mph - N/A   Clear
11:55 PM -8.5 °F -19.8 °F -12.5 °F 83% 30.52 in 10.0 mi WSW 4.6 mph - N/A   Clear